Weather History for Defiance, OH

Change the Weather History Date:

Friday, January 31, 2014

  Actual Average Record
Temperature  
Mean Temperature 30 °F -  
Max Temperature 33 °F 31 °F 57 °F (2012)
Min Temperature 28 °F 17 °F -8 °F (1966)
Degree Days  
Heating Degree Days 34    
Moisture  
Dew Point 25 °F    
Average Humidity 80    
Maximum Humidity 93    
Minimum Humidity 57    
Precipitation  
Precipitation 0.02 in - - ()
Sea Level Pressure  
Sea Level Pressure 30.10 in    
Wind  
Wind Speed 5 mph (SW)    
Max Wind Speed 10 mph    
Max Gust Speed -    
Visibility 4 miles    
Events Snow    
Averages and records for this station are not official NWS values.
T = Trace of Precipitation, MM = Missing Value Source: NWS Daily Summary

Daily Weather History Graph

Daily Weather History Graph

Search for Another Location

Airport:

Trip Planner

Search our weather history database for the weather conditions in past years. The results will help you decide how hot, cold, wet, or windy it might be!

Date:

Astronomy

Jan. 31, 2014 Rise Set
Actual Time 7:49 AM EST 5:52 PM EST
Civil Twilight 7:20 AM EST 6:22 PM EST
Nautical Twilight 6:47 AM EST 6:55 PM EST
Astronomical Twilight 6:15 AM EST 7:27 PM EST
Moon 7:58 AM EST (1/31) 7:17 PM EST (1/31)
Length of Visible Light 11h 01m
Length of Day
10h 02m
New Moon, 1% of the Moon is Illuminated
Jan 31
New Moon
Feb 6
First Quarter
Feb 14
Full
Feb 22
Last Quarter
Mar 1
New

Hourly Weather History & Observations

Time (EST) Temp. Windchill Dew Point Humidity Pressure Visibility Wind Dir Wind Speed Gust Speed Precip Events Conditions
12:53 AM 28.0 °F 19.3 °F 18.0 °F 66% 29.92 in 10.0 mi SW 9.2 mph - N/A   Clear
1:53 AM 28.9 °F 20.4 °F 17.1 °F 61% 29.93 in 10.0 mi SSW 9.2 mph - N/A   Overcast
2:53 AM 30.0 °F 22.4 °F 18.0 °F 61% 29.94 in 10.0 mi SSW 8.1 mph - N/A   Overcast
3:15 AM 30.2 °F 22.6 °F 17.6 °F 60% 29.93 in 10.0 mi SSW 8.1 mph - N/A   Overcast
3:53 AM 30.9 °F 23.5 °F 17.1 °F 57% 29.97 in 10.0 mi SW 8.1 mph - N/A   Overcast
4:53 AM 30.9 °F 22.2 °F 17.1 °F 57% 29.98 in 10.0 mi SSW 10.4 mph - N/A   Overcast
5:53 AM 30.9 °F 23.5 °F 18.0 °F 59% 30.00 in 10.0 mi SSW 8.1 mph - N/A   Overcast
6:53 AM 30.9 °F 22.8 °F 19.0 °F 61% 30.03 in 10.0 mi SW 9.2 mph - N/A   Overcast
7:53 AM 30.9 °F 22.8 °F 19.0 °F 61% 30.07 in 10.0 mi SW 9.2 mph - N/A   Overcast
8:53 AM 30.9 °F 24.3 °F 21.9 °F 69% 30.10 in 10.0 mi SW 6.9 mph - N/A   Overcast
9:53 AM 30.9 °F 26.2 °F 23.0 °F 72% 30.11 in 9.0 mi Variable 4.6 mph - N/A   Overcast
10:07 AM 30.2 °F 24.3 °F 23.0 °F 75% 30.08 in 9.0 mi WSW 5.8 mph - N/A   Overcast
10:53 AM 33.1 °F 30.0 °F 24.1 °F 70% 30.10 in 7.0 mi Variable 3.5 mph - N/A   Overcast
11:41 AM 33.8 °F 30.8 °F 26.6 °F 75% 30.10 in 6.0 mi Variable 3.5 mph - N/A   Haze
11:53 AM 33.1 °F 30.0 °F 25.0 °F 72% 30.12 in 5.0 mi Variable 3.5 mph - N/A   Haze
12:53 PM 33.1 °F 27.7 °F 26.1 °F 75% 30.12 in 4.0 mi Variable 5.8 mph - N/A   Haze
1:11 PM 33.8 °F 27.7 °F 26.6 °F 75% 30.10 in 2.0 mi WSW 6.9 mph - 0.00 in Snow Light Snow
1:20 PM 33.8 °F 28.6 °F 26.6 °F 75% 30.10 in 1.5 mi WSW 5.8 mph - 0.00 in Snow Light Snow
1:41 PM 32.0 °F 27.5 °F 26.6 °F 80% 30.10 in 1.5 mi West 4.6 mph - 0.00 in Snow Light Snow
1:53 PM 33.1 °F 28.7 °F 27.0 °F 78% 30.13 in 1.8 mi Variable 4.6 mph - 0.00 in Snow Light Snow
2:02 PM 32.0 °F 26.4 °F 26.6 °F 80% 30.11 in 1.5 mi WSW 5.8 mph - 0.00 in Snow Light Snow
2:16 PM 32.0 °F 26.4 °F 26.6 °F 80% 30.11 in 1.8 mi WSW 5.8 mph - 0.00 in Snow Light Snow
2:25 PM 32.0 °F 27.5 °F 28.4 °F 87% 30.10 in 2.0 mi WSW 4.6 mph - 0.00 in Snow Light Snow
2:53 PM 32.0 °F 28.7 °F 27.0 °F 82% 30.13 in 1.5 mi WSW 3.5 mph - 0.00 in Snow Light Snow
3:26 PM 32.0 °F 28.7 °F 28.4 °F 87% 30.11 in 1.5 mi WSW 3.5 mph - 0.00 in Snow Light Snow
3:36 PM 32.0 °F 27.5 °F 28.4 °F 87% 30.10 in 1.0 mi WNW 4.6 mph - 0.00 in Snow Light Snow
3:53 PM 30.9 °F 26.2 °F 27.0 °F 85% 30.13 in 1.0 mi NW 4.6 mph - 0.00 in Snow Light Snow
4:37 PM 30.2 °F - 26.6 °F 86% 30.12 in 2.0 mi Calm Calm - 0.00 in Snow Light Snow
4:53 PM 30.9 °F - 27.0 °F 85% 30.14 in 1.5 mi Calm Calm - 0.00 in Snow Light Snow
5:20 PM 30.2 °F - 26.6 °F 86% 30.11 in 2.0 mi Calm Calm - 0.00 in Snow Light Snow
5:30 PM 30.2 °F - 26.6 °F 86% 30.11 in 1.5 mi Calm Calm - 0.00 in Snow Light Snow
5:53 PM 30.9 °F - 27.0 °F 85% 30.15 in 1.2 mi Calm Calm - 0.00 in Snow Light Snow
6:07 PM 30.2 °F - 28.4 °F 93% 30.12 in 2.0 mi Calm Calm - 0.00 in Snow Light Snow
6:19 PM 30.2 °F - 28.4 °F 93% 30.13 in 2.0 mi Calm Calm - 0.00 in Snow Light Snow
6:26 PM 30.2 °F - 28.4 °F 93% 30.13 in 2.5 mi Calm Calm - 0.00 in Snow Light Snow
6:42 PM 30.2 °F - 28.4 °F 93% 30.14 in 3.0 mi Calm Calm - 0.00 in   Overcast
6:53 PM 30.9 °F - 28.0 °F 89% 30.16 in 2.5 mi Calm Calm - 0.00 in Snow Light Snow
7:01 PM 30.2 °F - 28.4 °F 93% 30.13 in 2.0 mi Calm Calm - 0.00 in Snow Light Snow
7:44 PM 30.2 °F - 28.4 °F 93% 30.14 in 2.5 mi Calm Calm - 0.00 in   Overcast
7:53 PM 30.0 °F - 28.0 °F 92% 30.16 in 2.5 mi Calm Calm - 0.00 in   Overcast
8:02 PM 30.2 °F - 28.4 °F 93% 30.13 in 2.5 mi Calm Calm - N/A   Overcast
8:53 PM 30.0 °F 26.5 °F 27.0 °F 88% 30.15 in 2.5 mi SSE 3.5 mph - N/A   Overcast
9:46 PM 28.4 °F 24.6 °F 26.6 °F 93% 30.13 in 1.0 mi South 3.5 mph - 0.00 in Snow Light Snow
9:51 PM 28.4 °F - 26.6 °F 93% 30.13 in 1.0 mi Calm Calm - 0.00 in Snow Light Snow
9:53 PM 28.9 °F 25.2 °F 27.0 °F 92% 30.16 in 1.2 mi South 3.5 mph - 0.00 in Snow Light Snow
10:17 PM 28.4 °F - 26.6 °F 93% 30.13 in 1.8 mi Calm Calm - 0.00 in Snow Light Snow
10:27 PM 28.4 °F 24.6 °F 26.6 °F 93% 30.13 in 1.0 mi South 3.5 mph - 0.00 in Snow Light Snow
10:53 PM 28.9 °F - 27.0 °F 92% 30.15 in 1.5 mi Calm Calm - 0.01 in Snow Light Snow
11:53 PM 28.9 °F - 27.0 °F 92% 30.14 in 1.5 mi Calm Calm - 0.01 in Snow Light Snow